Location: Chevoux
(46.3801°N, 4.9476°E)
Time: 22:58:00
(UTC+00:00)

Meteor 1-21 Rocket - Pass Details

Date: 28 January 2021
Orbit: 834 x 906 km, 81.2° (Epoch: 04 March)

Event Time Altitude Azimuth Distance (km) Brightness Sun altitude
Rises 17:21:23 0° 186° (S) 3,368 7.7 -7.6°
Reaches altitude 10° 17:23:46 10° 186° (S) 2,440 6.9 -8.0°
Maximum altitude 17:29:18 83° 99° (E) 853 4.2 -8.9°
Drops below altitude 10° 17:34:55 10° 13° (NNE) 2,484 6.4 -9.9°
Sets 17:37:22 0° 12° (NNE) 3,433 7.1 -10.3°
